TimeEST,TemperatureF,Dew PointF,Humidity,Sea Level PressureIn,VisibilityMPH,Wind Direction,Wind SpeedMPH,Gust SpeedMPH,PrecipitationIn,Events,Conditions,WindDirDegrees,DateUTC
12:04 AM,21.2,15.8,80,30.00,8.0,Calm,Calm,-,N/A,,Overcast,0,2013-02-03 05:04:00
12:53 AM,21.0,15.1,78,30.02,8.0,WNW,10.4,-,N/A,,Overcast,290,2013-02-03 05:53:00
1:53 AM,19.9,14.0,78,30.00,5.0,WNW,5.8,-,N/A,,Haze,300,2013-02-03 06:53:00
2:33 AM,19.4,12.2,74,29.97,5.0,West,10.4,-,N/A,,Haze,260,2013-02-03 07:33:00
2:53 AM,19.0,14.0,81,29.99,5.0,West,8.1,-,N/A,,Haze,270,2013-02-03 07:53:00
3:53 AM,18.0,10.9,74,29.98,7.0,WNW,9.2,-,N/A,,Overcast,290,2013-02-03 08:53:00
4:01 AM,17.6,10.4,73,29.95,7.0,West,9.2,-,N/A,,Overcast,280,2013-02-03 09:01:00
4:53 AM,16.0,9.0,74,29.97,7.0,West,8.1,-,N/A,,Overcast,270,2013-02-03 09:53:00
5:11 AM,15.8,8.6,73,29.94,7.0,West,9.2,-,N/A,,Overcast,270,2013-02-03 10:11:00
5:53 AM,15.1,8.1,74,29.96,7.0,West,8.1,-,N/A,,Overcast,270,2013-02-03 10:53:00
6:39 AM,14.0,8.6,79,29.93,9.0,West,8.1,-,N/A,,Overcast,270,2013-02-03 11:39:00
7:53 AM,12.9,7.0,77,29.98,8.0,West,8.1,-,0.00,,Overcast,260,2013-02-03 12:53:00
8:53 AM,14.0,6.1,71,30.00,10.0,West,6.9,-,N/A,,Overcast,280,2013-02-03 13:53:00
9:53 AM,16.0,7.0,68,29.99,8.0,West,11.5,-,0.00,,Overcast,280,2013-02-03 14:53:00
10:53 AM,17.1,8.1,68,30.00,7.0,WNW,9.2,-,N/A,,Overcast,290,2013-02-03 15:53:00
11:53 AM,18.0,9.0,68,29.99,10.0,NW,10.4,-,N/A,,Overcast,310,2013-02-03 16:53:00
12:53 PM,19.9,10.0,65,29.99,6.0,WNW,11.5,-,0.00,Snow,Light Snow,290,2013-02-03 17:53:00
1:31 PM,19.4,10.4,68,29.97,7.0,WNW,13.8,-,N/A,,Overcast,300,2013-02-03 18:31:00
1:53 PM,19.9,10.9,68,30.01,5.0,WNW,15.0,-,0.00,Snow,Light Snow,290,2013-02-03 18:53:00
2:53 PM,21.9,12.9,68,30.01,4.0,WNW,12.7,-,0.00,Snow,Light Snow,290,2013-02-03 19:53:00
3:40 PM,21.2,14.0,74,30.00,2.5,West,11.5,-,0.00,Snow,Light Snow,280,2013-02-03 20:40:00
3:49 PM,23.0,14.0,68,30.00,4.0,West,11.5,-,0.00,Snow,Light Snow,280,2013-02-03 20:49:00
3:53 PM,23.0,14.0,68,30.03,4.0,West,11.5,-,0.00,Snow,Light Snow,270,2013-02-03 20:53:00
4:53 PM,24.1,14.0,65,30.05,7.0,WNW,15.0,25.3,0.00,,Overcast,290,2013-02-03 21:53:00
5:08 PM,23.0,15.8,74,30.02,1.8,WNW,12.7,-,0.00,Snow,Light Snow,290,2013-02-03 22:08:00
5:30 PM,21.2,14.0,74,30.02,3.0,West,15.0,21.9,0.00,Snow,Light Snow,280,2013-02-03 22:30:00
5:53 PM,21.9,12.0,66,30.06,10.0,WNW,15.0,23.0,0.00,,Overcast,290,2013-02-03 22:53:00
6:00 PM,21.2,12.2,68,30.03,10.0,WNW,15.0,-,N/A,,Overcast,290,2013-02-03 23:00:00
6:45 PM,21.2,12.2,68,30.04,10.0,West,11.5,-,N/A,,Scattered Clouds,280,2013-02-03 23:45:00
6:53 PM,21.0,12.0,68,30.08,10.0,West,10.4,-,N/A,,Partly Cloudy,280,2013-02-03 23:53:00
7:53 PM,19.9,10.9,68,30.10,10.0,West,6.9,-,N/A,,Clear,260,2013-02-04 00:53:00
8:53 PM,19.0,10.9,71,30.09,9.0,SW,5.8,-,N/A,,Clear,230,2013-02-04 01:53:00
9:53 PM,19.0,10.9,71,30.10,9.0,SW,5.8,-,N/A,,Scattered Clouds,230,2013-02-04 02:53:00
10:53 PM,19.0,10.9,71,30.10,9.0,SW,5.8,-,N/A,,Mostly Cloudy,220,2013-02-04 03:53:00
11:53 PM,19.9,12.0,71,30.10,9.0,SW,6.9,-,N/A,,Overcast,230,2013-02-04 04:53:00